Regional Weather Roundup
Issued by NWS Columbia, SC

Home | Current Version | Previous Version | Text Only | Print | Product List | Glossary On
Versions: 1 2 3 4 5 6 7 8 9 10 11 12 13 14 15 16 17 18 19 20 21 22 23 24 25 26 27 28 29 30 31 32 33 34 35 36 37 38 39 40 41 42 43 44 45 46 47 48 49 50
000
ASUS42 KCAE 130810
RWRCAE
REGIONAL WEATHER ROUNDUP
NATIONAL WEATHER SERVICE COLUMBIA SC
400 AM EDT SUN JUL 13 2014

NOTE: "FAIR" INDICATES FEW OR NO CLOUDS BELOW 12,000 FEET WITH NO
SIGNIFICANT WEATHER AND/OR OBSTRUCTIONS TO VISIBILITY.

NOT ALL STATIONS ARE QUALITY CONTROLLED BY THE NATIONAL
WEATHER SERVICE. USE DATA WITH CAUTION...ESPECIALLY
DEWPOINT OBSERVATIONS.

SCZ001>056-GAZ040-063>065-077-130900-
...UPSTATE SOUTH CAROLINA...

CITY           SKY/WX    TMP DP  RH WIND       PRES   REMARKS
ANDERSON       CLEAR     71  68  90 CALM      30.14F
LIBERTY        FAIR      68  32  26 MISG      30.15S
SPARTANBURG    FAIR      72  72 100 CALM      30.15S
CLEMSON        CLEAR     74  67  78 CALM      30.16S
GREENVILLE     PTCLDY    74  68  81 W5        30.17R
GREENWOOD      CLEAR     72  68  87 S5        30.15S
GREER          PTCLDY    73  68  84 CALM      30.15R
ROCK HILL      CLEAR     68  67  96 SW3       30.16S
CHESTER        FAIR      72  72 100 CALM      30.16S
LAURENS        FAIR      72 N/A N/A SW3       30.16R


...CENTRAL SOUTH CAROLINA...

CITY           SKY/WX    TMP DP  RH WIND       PRES   REMARKS
COLUMBIA APT   CLEAR     74  70  87 CALM      30.12S
COLUMBIA OWENS CLEAR     74  70  87 CALM      30.14S
DARLINGTON     PTCLDY    72  66  83 CALM      30.15S
FLORENCE       PTCLDY    73  70  90 CALM      30.13S
MCENTIRE ANGB  FOG       70  70 100 SE2       30.13F VSB 3/4
ORANGEBURG     PTCLDY    73  70  90 S3        30.13F
SUMTER SHAW    CLEAR     73  72  97 CALM      30.11F
NEWBERRY       FAIR      70  70 100 S3        30.17R
AIKEN          FAIR      70  70 100 CALM      30.17S
BARNWELL       FAIR      73  72  94 CALM      30.14S
MANNING        CLOUDY    73 N/A N/A CALM      30.13S
CAMDEN         FAIR      72  72 100 N3        30.14S
LANCASTER      LGT RAIN  72  72 100 CALM      30.15S
WINNSBORO      FAIR      72  72 100 CALM      30.14S


...EASTERN AND COASTAL SOUTH CAROLINA...

CITY           SKY/WX    TMP DP  RH WIND       PRES   REMARKS
MYRTLE BEACH   PTCLDY    73  70  88 W3        30.13S
N MYRTLE BCH   MOCLDY    77  72  84 SW6       30.12S
CONWAY         FAIR      68  68 100 CALM      30.14R
MARION         FAIR      70  70 100 CALM      30.14S
HARTSVILLE     FAIR      70  70 100 CALM      30.15S
FLORENCE       PTCLDY    73  70  90 CALM      30.13S
DARLINGTON     PTCLDY    72  66  83 CALM      30.15S
CHARLESTON APT PTCLDY    75  72  90 CALM      30.12S
MOUNT PLEASANT FAIR      73  72  94 CALM      30.12S
WALTERBORO     SUNNY     72 N/A N/A CALM      30.14R
BEAUFORT       PTCLDY    75  73  93 CALM      30.12F


...EASTERN GEORGIA...

CITY           SKY/WX    TMP DP  RH WIND       PRES   REMARKS
AUGUSTA BUSH F CLEAR     69  69 100 S5        30.12S
AUGUSTA DANIEL CLEAR     75  71  87 SE3       30.14S
THOMSON        CLEAR     73  73 100 CALM      30.18R
WASHINGTON     FAIR      77  77 100 CALM      30.13F
CLAXTON        FAIR     N/A N/A N/A CALM      30.13S
SYLVANIA       SUNNY     73  73 100 CALM      30.14S
STATESBORO     CLEAR     71  71 100 CALM      30.13S
SAVANNAH       CLEAR     74  71  91 N3        30.12S


...SOUTHERN NORTH CAROLINA...

CITY           SKY/WX    TMP DP  RH WIND       PRES   REMARKS
CHARLOTTE      MOCLDY    72  66  81 S3        30.16R
MONROE         CLEAR     72  69  90 CALM      30.14F
WADESBORO      SUNNY     70  68  93 CALM      30.14R
ROCKINGHAM       N/A     72  72 100 S3        30.14S
RUTHERFORDTON  PTCLDY    70  68  94 CALM      30.17S
ASHEVILLE      PTCLDY    68  65  90 CALM      30.22S

$$



USA.gov is the U.S. government's official web portal to all federal, state and local government web resources and services.